map of MZH home
Great Circle Mapper logo
MZH - Airport
Location
City:  Merzifon, Amasya, Turkey
ICAO:LTAP
IATA:MZH

Details
Type:Airport (Aerodrome, Airfield)
Use:Military
Latitude:4049'46"N (40.829375)
Longitude:3531'19"E (35.521992)
Datum:WGS 1984
Elevation:1758 ft (536 m)
Variation:5.89E (WMM2015 magnetic declination)
0.09 annual change
Runways:1
Longest:9600 × 148 ft (2926 × 45 m), paved

Time
Time Zone:UTC+2 (DST+3)
Local Time:

Weather
METAR:LTAP 250020Z 30003KT CAVOK 08/06 Q1009 NOSIG RMK RWY23 00000KT

Related Locations
Nearby:
Farthest:RVV: 11248 mi / 18102 km
Raivavae, Tubuai Islands, Austral Islands, PF

Find:

   beyond  
but within

Other Information
Maps:
NOTAMs:
Links:
Sources:

  
flag of Turkey   

Airport Diagram

Airport diagram for MZH

Airport diagram (OBSOLETE) from NGA

Sectional Chart

Flight Planning
at skyvector.com

Satellite Image

Google Maps Satellite view

 

Copyright © 2004-2016 Karl L. Swartz. All rights reserved.
The Great Circle Mapper name and logo are trademarks of the Great Circle Mapper.
All other trademarks mentioned herein belong to their respective owners.
Please see credits for attibutions and further copyright information.

  Follow gcmap on Facebook Follow gcmap on Twitter Follow gcmap on Google+ GCmap on LinkedIn

hCard Microformat

Geo Microformat